Location: New Plymouth
(39.0670°S, 174.0830°E)
Time: 10:53:17
(UTC+12:00)

STRAND 1 - Pass Details

Date: 27 August 2019
Orbit: 768 x 781 km, 98.5° (Epoch: 18 September)

Event Time Altitude Azimuth Distance (km) Brightness Sun altitude
Rises 20:04:25 0° 342° (NNW) 3,248 ? -25.5°
Reaches altitude 10° 20:07:07 10° 328° (NNW) 2,332 ? -26.0°
Maximum altitude 20:11:15 24° 274° (W) 1,578 ? -26.8°
Drops below altitude 10° 20:15:27 10° 221° (SW) 2,364 ? -27.6°
Sets 20:18:14 0° 207° (SSW) 3,302 ? -28.2°
